Hourly Data Report for April 01, 2018

KUGAARUK CLIMATE
NUNAVUT
Current Station Operator: ECCC - MSC

68°32'15.060" N
89°47'47.020" W
15.80 m
2303094
71407
NBB

Download Data

Hourly Data (April 2018)
Hourly Data Report for April 1, 2018
TIME
LST
Temp Definition
°C
Dew Point Definition
°C
Rel Hum Definition
%
Precip. Amount Definition
mm

Wind Dir Definition
10's deg

Wind Spd Definition
km/h
Visibility Definition
km
Stn Press Definition
kPa
Hmdx Definition


Wind Chill Definition


Weather Definition


00:00 -27.0 -30.1 76 0.0 25 11   101.66   -36 LegendNANA
01:00 -26.1 -28.9 77 0.0 25 13   101.65   -36 LegendNANA
02:00 -24.6 -27.3 79 0.0 25 14   101.63   -34 LegendNANA
03:00 -22.9 -25.5 79 0.0 30 11   101.61   -31 LegendNANA
04:00 -22.6 -25.1 80 0.0 30 12   101.60   -31 LegendNANA
05:00 -22.5 -25.0 80 0.0 30 12   101.56   -31 LegendNANA
06:00 -22.5 -25.0 80 0.0 29 13   101.51   -31 LegendNANA
07:00 -22.1 -24.7 79 0.0 30 11   101.47   -30 LegendNANA
08:00 -21.8 -24.5 78 0.0 30 10   101.42   -29 LegendNANA
09:00 -20.8 -23.6 78 0.0 25 9   101.35   -28 LegendNANA
10:00 -19.6 -22.5 78 0.0 27 10   101.30   -27 LegendNANA
11:00 -19.6 -22.6 77 0.0 30 15   101.26   -29 LegendNANA
12:00 -18.9 -21.9 77 0.0 31 10   101.21   -26 LegendNANA
13:00 -18.4 -21.8 75 0.0 34 14   101.16   -27 LegendNANA
14:00 -18.3 -21.3 77 0.0 1 11   101.13   -26 LegendNANA
15:00 -18.7 -21.3 80 0.0 35 21   101.08   -29 LegendNANA
16:00 -18.3 -20.7 82 0.0 1 7   101.05   -24 LegendNANA
17:00 -18.6 -20.9 82 0.0 3 17   101.01   -28 LegendNANA
18:00 -18.4 -20.6 83 0.2 1 34   100.91   -31 LegendNANA
19:00 -18.0 -20.1 84 0.2 2 34   100.81   -31 LegendNANA
20:00 -17.4 -19.5 84 0.0 1 34   100.84   -30 LegendNANA
21:00 -16.7 -18.7 85 0.0 5 29   100.82   -28 LegendNANA
22:00 -16.2 -18.1 85 0.2 5 13   100.88   -24 LegendNANA
23:00 -15.7 -17.5 86 0.0 11 4   100.89   -19 LegendNANA

Notes on Data Quality.

Legend

  • E = Estimated
  • M = Missing
  • NA = Not Available*
  • [empty] = Indicates an unobserved value
Date modified: